South Lake Tahoe, CA

1:03 PM PST on December 12, 2019 (GMT -0800)
Lake Tahoe

Weather History for KTVL - November, 2019

Change the Weather History Date:

Thursday, November 21, 2019

  Actual Average Record
Temperature  
Mean Temperature 37 °F 34 °F  
Max Temperature 46 °F 48 °F 61 °F (1995)
Min Temperature 28 °F 21 °F 4 °F (1985)
Degree Days  
Heating Degree Days 28 30  
Month to date heating degree days 481 573  
Since 1 July heating degree days 1797 1805  
Cooling Degree Days 0 0  
Month to date cooling degree days 0 0  
Year to date cooling degree days 20 31  
Moisture  
Dew Point 30 °F    
Average Humidity 77    
Maximum Humidity 92    
Minimum Humidity 49    
Precipitation  
Precipitation T in - 3.15 in (1950)
Month to date precipitation 0.09  
Year to date precipitation 18.11  
Sea Level Pressure  
Sea Level Pressure 29.89 in    
Wind  
Wind Speed 2 mph ()    
Max Wind Speed 10 mph    
Max Gust Speed 17 mph    
Visibility 9.4 miles    
Events Snow    
T = Trace of Precipitation, MM = Missing Value Source: Averaged Metar Reports

Daily Weather History Graph

Daily Weather History Graph

Search for Another Location

Airport or City:

Astronomy

Nov. 21, 2019 Rise Set
Actual Time 6:49 AM PST 4:42 PM PST
Civil Twilight 6:20 AM PST 5:11 PM PST
Nautical Twilight 5:47 AM PST 5:43 PM PST
Astronomical Twilight 5:15 AM PST 6:15 PM PST
Moon 12:54 AM PST (11/21) 2:10 PM PST (11/21)
Length of Visible Light 10h 50m
Length of Day
9h 53m
Waning Crescent, 28% of the Moon is Illuminated
Nov 21
Waning Crescent
Nov 26
New
Dec 3
First Quarter
Dec 11
Full
Dec 18
Last Quarter

Hourly Weather History & Observations

Time (PST) Temp. Windchill Dew Point Humidity Pressure Visibility Wind Dir Wind Speed Gust Speed Precip Events Conditions
12:01 AM 33.1 °F 28.7 °F 28.0 °F 82% 29.75 in 5.0 mi Variable 4.6 mph - 0.00 in Snow Light Snow
12:20 AM 32.0 °F - 28.9 °F 88% 29.75 in 5.0 mi Calm Calm - 0.00 in Snow Light Snow
12:37 AM 32.0 °F - 28.0 °F 85% 29.76 in 5.0 mi Calm Calm - 0.00 in Snow Light Snow
12:53 AM 32.0 °F - 28.9 °F 88% 29.75 in 9.0 mi Calm Calm - 0.00 in   Overcast
1:53 AM 32.0 °F 24.8 °F 28.0 °F 85% 29.77 in 5.0 mi NNE 8.1 mph - 0.00 in   Overcast
2:53 AM 32.0 °F - 28.0 °F 85% 29.80 in 10.0 mi Calm Calm - 0.00 in   Overcast
3:45 AM 32.0 °F 26.4 °F 28.0 °F 85% 29.81 in 10.0 mi Variable 5.8 mph - N/A   Overcast
3:53 AM 32.0 °F 24.8 °F 27.0 °F 82% 29.80 in 10.0 mi NNE 8.1 mph - N/A   Overcast
4:27 AM 32.0 °F - 27.0 °F 82% 29.82 in 10.0 mi Calm Calm - N/A   Overcast
4:53 AM 32.0 °F - 27.0 °F 82% 29.81 in 10.0 mi Calm Calm - N/A   Overcast
5:14 AM 32.0 °F 28.7 °F 27.0 °F 82% 29.83 in 10.0 mi West 3.5 mph - N/A   Scattered Clouds
5:53 AM 30.9 °F 26.2 °F 28.0 °F 89% 29.84 in 10.0 mi South 4.6 mph - N/A   Overcast
6:53 AM 30.9 °F - 27.0 °F 85% 29.84 in 10.0 mi Calm Calm - N/A   Scattered Clouds
7:53 AM 30.0 °F 24.1 °F 27.0 °F 88% 29.84 in 10.0 mi South 5.8 mph - N/A   Clear
8:53 AM 35.1 °F 29.3 °F 28.0 °F 76% 29.85 in 10.0 mi South 6.9 mph - N/A   Clear
9:53 AM 39.0 °F 36.8 °F 26.1 °F 60% 29.86 in 10.0 mi South 3.5 mph - N/A   Clear
10:53 AM 41.0 °F - 26.1 °F 55% 29.85 in 10.0 mi Calm Calm - N/A   Clear
12:53 PM 44.1 °F 42.5 °F 28.0 °F 53% 29.83 in 10.0 mi SSW 3.5 mph - N/A   Clear
1:53 PM 46.0 °F 41.0 °F 28.9 °F 51% 29.83 in 10.0 mi NE 10.4 mph - N/A   Clear
2:53 PM 45.0 °F - 28.9 °F 53% 29.84 in 10.0 mi Calm Calm - N/A   Clear
3:53 PM 41.0 °F - 30.0 °F 65% 29.88 in 10.0 mi Calm Calm - N/A   Partly Cloudy
4:53 PM 41.0 °F 36.4 °F 32.0 °F 70% 29.90 in 10.0 mi South 6.9 mph - N/A   Overcast
5:53 PM 39.9 °F 37.8 °F 33.1 °F 77% 29.93 in 10.0 mi SSE 3.5 mph - N/A   Overcast
6:53 PM 39.0 °F 36.8 °F 33.1 °F 79% 29.96 in 10.0 mi SSE 3.5 mph - N/A   Overcast
7:53 PM 39.0 °F 36.8 °F 33.1 °F 79% 29.99 in 10.0 mi SSW 3.5 mph - N/A   Overcast
8:37 PM 37.9 °F 34.4 °F 32.0 °F 79% 30.02 in 10.0 mi SSE 4.6 mph - N/A   Overcast
8:53 PM 39.0 °F - 32.0 °F 76% 30.00 in 10.0 mi Calm Calm - N/A   Overcast
9:05 PM 39.0 °F - 32.0 °F 76% 30.03 in 10.0 mi Calm Calm - N/A   Overcast
9:12 PM 37.9 °F - 32.0 °F 79% 30.04 in 10.0 mi Calm Calm - N/A   Overcast
9:20 PM 37.9 °F - 32.0 °F 79% 30.04 in 10.0 mi Calm Calm - N/A   Overcast
9:53 PM 37.9 °F - 32.0 °F 79% 30.01 in 10.0 mi Calm Calm - N/A   Overcast
10:06 PM 37.9 °F - 32.0 °F 79% 30.05 in 10.0 mi Calm Calm - N/A   Overcast
10:53 PM 37.0 °F - 33.1 °F 86% 30.02 in 10.0 mi Calm Calm - 0.00 in   Overcast
11:12 PM 37.0 °F - 33.1 °F 86% 30.07 in 10.0 mi Calm Calm - 0.00 in   Overcast
11:53 PM 37.0 °F 34.5 °F 33.1 °F 86% 30.03 in 10.0 mi South 3.5 mph - 0.00 in   Overcast